Le nostre stazioni meteo in Italia

Pubblicità
Il mio iltempo24.it
Catanzaro, Italia (16365): Temperatura & dewpoint: 08.11.2019 23:00:00 - 14.11.2019 23:00:00 (CET)Catanzaro, Italia (16365): velocità del vento: 08.11.2019 23:00:00 - 14.11.2019 23:00:00 (CET)Catanzaro, Italia (16365): direzione del vento: 08.11.2019 23:00:00 - 14.11.2019 23:00:00 (CET)Catanzaro, Italia (16365): reduced air pressure: 08.11.2019 23:00:00 - 14.11.2019 23:00:00 (CET)
Data & Tempo tt [°C] td [°C] ff [km/h] ff [kn] dd ppp [hPa]
14.11.2019 23:00:00 - - - - - -
14.11.2019 22:00:00 12,4 - - - - -
14.11.2019 21:00:00 12,6 - - - - -
14.11.2019 20:00:00 12,4 - - - - -
14.11.2019 19:00:00 12,2 - - - - 1010,6
14.11.2019 18:00:00 12,4 - - - - 1010,2
14.11.2019 17:00:00 12,8 8,0 0 0 N 1010,1
14.11.2019 16:00:00 14,3 - - - - -
14.11.2019 15:00:00 14,0 7,5 9 5 ESE 1009,3
14.11.2019 14:00:00 15,1 6,6 9 5 ESE 1009,0
14.11.2019 13:00:00 14,8 6,0 11 6 SE 1009,4
14.11.2019 12:00:00 15,2 - - - - -
14.11.2019 11:00:00 14,0 - - - - -
14.11.2019 10:00:00 13,6 - - - - -
14.11.2019 09:00:00 13,4 - - - - -
14.11.2019 08:00:00 13,1 - - - - -
14.11.2019 07:00:00 12,5 - - - - 1009,7
14.11.2019 06:00:00 12,2 - - - - -
14.11.2019 05:00:00 11,9 4,3 8 4 NNO 1009,6
14.11.2019 04:00:00 11,6 4,0 8 4 NNO 1009,5
14.11.2019 03:00:00 11,4 3,8 9 5 NNO 1009,5
14.11.2019 02:00:00 12,1 3,8 0 0 N 1009,5
14.11.2019 01:00:00 12,6 4,0 16 9 NO 1009,1
14.11.2019 00:00:00 12,8 3,9 13 7 NO 1009,5
13.11.2019 23:00:00 12,8 5,4 15 8 NO 1009,7
13.11.2019 22:00:00 12,5 4,9 15 8 NO 1009,7
13.11.2019 21:00:00 12,9 5,0 22 12 NO 1009,6
13.11.2019 20:00:00 12,2 6,8 16 9 ONO 1009,2
13.11.2019 19:00:00 12,4 7,0 21 11 NO 1008,3
13.11.2019 18:00:00 12,7 7,9 15 8 NO 1007,1
13.11.2019 17:00:00 12,7 8,9 21 11 O 1006,6
13.11.2019 16:00:00 12,2 9,9 15 8 ONO 1006,9
13.11.2019 15:00:00 12,7 10,9 16 9 ONO 1006,3
13.11.2019 14:00:00 12,5 10,2 15 8 O 1006,1
13.11.2019 13:00:00 12,9 10,6 22 12 O 1005,7
13.11.2019 12:00:00 13,1 11,3 15 8 O 1005,4
13.11.2019 11:00:00 12,9 11,1 16 9 O 1005,0
13.11.2019 10:00:00 13,0 11,2 11 6 NNE 1004,1
13.11.2019 09:00:00 12,9 10,9 11 6 O 1003,3
13.11.2019 08:00:00 13,1 10,2 11 6 O 1002,0
13.11.2019 07:00:00 13,8 8,2 2 1 O 1001,0
13.11.2019 06:00:00 13,5 8,3 9 5 ONO 1000,2
13.11.2019 05:00:00 13,4 8,4 5 3 O 999,0
13.11.2019 04:00:00 12,9 9,9 2 1 O 998,6
13.11.2019 03:00:00 13,2 10,3 11 6 S 997,9
13.11.2019 02:00:00 13,2 10,0 26 14 S 998,0
13.11.2019 01:00:00 13,0 9,2 39 21 S 998,4
13.11.2019 00:00:00 13,4 9,0 41 22 S 999,6
12.11.2019 23:00:00 13,1 8,7 18 10 S 1000,1
12.11.2019 22:00:00 13,4 8,6 21 11 S 1000,2
12.11.2019 21:00:00 13,6 8,2 22 12 S 999,8
12.11.2019 20:00:00 13,0 8,8 29 16 SSO 1000,6
12.11.2019 19:00:00 13,2 8,8 26 14 S 1000,6
12.11.2019 18:00:00 14,0 8,6 35 19 S 1000,0
12.11.2019 17:00:00 14,0 8,3 28 15 S 999,7
12.11.2019 16:00:00 14,3 8,4 26 14 S 999,9
12.11.2019 15:00:00 14,6 7,3 28 15 S 999,7
12.11.2019 14:00:00 14,9 5,3 34 18 S 1000,1
12.11.2019 13:00:00 14,4 7,6 26 14 S 999,6
12.11.2019 12:00:00 14,0 8,3 13 7 S 1000,4
12.11.2019 11:00:00 13,3 11,2 28 15 S 1000,4
12.11.2019 10:00:00 14,2 9,8 5 3 E 999,6
12.11.2019 09:00:00 14,4 11,0 9 5 SSO 999,6
12.11.2019 08:00:00 16,3 14,8 8 4 ESE 995,6
12.11.2019 07:00:00 16,2 16,1 26 14 SSE 994,9
12.11.2019 06:00:00 14,9 13,4 16 9 E 996,9
12.11.2019 05:00:00 14,1 14,0 21 11 ENE 999,1
12.11.2019 04:00:00 14,1 14,0 2 1 SO 1001,7
12.11.2019 03:00:00 13,8 13,7 5 3 ENE 1002,6
12.11.2019 02:00:00 13,2 12,1 8 4 E 1003,7
12.11.2019 01:00:00 13,0 11,7 2 1 NNO 1004,4
12.11.2019 00:00:00 14,6 14,5 31 17 ESE 1005,5
11.11.2019 23:00:00 13,8 13,7 16 9 ENE 1006,5
11.11.2019 22:00:00 14,6 14,5 16 9 E 1007,2
11.11.2019 21:00:00 14,5 14,4 18 10 E 1007,3
11.11.2019 20:00:00 14,9 13,4 24 13 ESE 1008,3
11.11.2019 19:00:00 15,8 10,3 16 9 E 1007,8
11.11.2019 18:00:00 15,7 10,2 21 11 ESE 1008,7
11.11.2019 17:00:00 14,3 10,5 11 6 E 1009,8
11.11.2019 16:00:00 13,1 10,8 11 6 ENE 1010,3
11.11.2019 15:00:00 - - - - - -
11.11.2019 14:00:00 16,0 9,1 9 5 E 1011,3
11.11.2019 13:00:00 16,6 8,5 13 7 E 1012,0
11.11.2019 12:00:00 16,5 9,1 11 6 E 1013,0
11.11.2019 11:00:00 16,0 9,4 5 3 E 1014,0
11.11.2019 10:00:00 14,7 9,9 5 3 E 1014,8
11.11.2019 09:00:00 12,6 9,2 4 2 N 1015,5
11.11.2019 08:00:00 13,8 7,5 4 2 ENE 1014,9
11.11.2019 07:00:00 12,9 7,5 4 2 NE 1014,4
11.11.2019 06:00:00 12,6 7,4 4 2 NNE 1014,6
11.11.2019 05:00:00 13,1 6,8 5 3 NNE 1015,0
11.11.2019 04:00:00 13,4 6,2 0 0 N 1015,1
11.11.2019 03:00:00 13,2 6,0 5 3 N 1015,1
11.11.2019 02:00:00 12,9 6,0 11 6 N 1015,1
11.11.2019 01:00:00 12,8 6,3 8 4 N 1015,5
11.11.2019 00:00:00 13,0 6,7 4 2 N 1015,5
10.11.2019 23:00:00 12,7 6,2 2 1 N 1015,4
10.11.2019 22:00:00 12,8 6,1 4 2 N 1015,3
10.11.2019 21:00:00 12,6 5,7 8 4 N 1015,1
10.11.2019 20:00:00 12,2 6,2 9 5 N 1014,9
10.11.2019 19:00:00 12,7 6,7 4 2 NNO 1014,5
10.11.2019 18:00:00 13,2 6,9 2 1 ONO 1014,0
10.11.2019 17:00:00 13,3 7,7 4 2 ONO 1013,4
10.11.2019 16:00:00 13,7 8,3 9 5 ONO 1013,0
10.11.2019 15:00:00 13,1 8,3 8 4 ONO 1012,8
10.11.2019 14:00:00 13,4 7,8 4 2 ONO 1012,6
10.11.2019 13:00:00 12,5 8,7 9 5 NO 1012,9
10.11.2019 12:00:00 12,7 8,3 5 3 O 1012,9
10.11.2019 11:00:00 12,3 9,3 9 5 ONO 1012,6
10.11.2019 10:00:00 11,3 7,6 21 11 NO 1012,6
10.11.2019 09:00:00 10,7 7,9 16 9 ONO 1012,2
10.11.2019 08:00:00 10,6 6,7 9 5 NO 1011,5
10.11.2019 07:00:00 9,8 6,3 15 8 ONO 1011,4
10.11.2019 06:00:00 9,9 5,8 11 6 OSO 1010,7
10.11.2019 05:00:00 9,7 6,7 13 7 O 1011,3
10.11.2019 04:00:00 10,8 6,9 15 8 O 1010,6
10.11.2019 03:00:00 11,2 7,1 11 6 ONO 1010,3
10.11.2019 02:00:00 11,5 5,7 16 9 NO 1009,6
10.11.2019 01:00:00 11,8 6,4 9 5 ONO 1010,1
10.11.2019 00:00:00 11,7 7,4 22 12 ONO 1010,0
09.11.2019 23:00:00 11,8 7,1 8 4 ONO 1010,4
09.11.2019 22:00:00 11,8 6,7 15 8 ONO 1010,7
09.11.2019 21:00:00 11,9 7,8 9 5 E 1011,3
09.11.2019 20:00:00 12,2 7,7 5 3 ONO 1010,7
09.11.2019 19:00:00 12,5 8,3 21 11 ONO 1010,0
09.11.2019 18:00:00 12,4 9,2 8 4 OSO 1010,4
09.11.2019 17:00:00 12,7 9,3 13 7 O 1011,1
09.11.2019 16:00:00 16,0 9,6 26 14 SSE 1010,2
09.11.2019 15:00:00 16,9 7,5 4 2 S 1009,9
09.11.2019 14:00:00 17,6 8,1 5 3 SSO 1010,9
09.11.2019 13:00:00 17,4 8,5 5 3 ONO 1011,3
09.11.2019 12:00:00 17,7 8,2 4 2 OSO 1012,3
09.11.2019 11:00:00 17,5 8,0 11 6 O 1012,8
09.11.2019 10:00:00 16,5 8,4 15 8 O 1013,2
09.11.2019 09:00:00 15,4 8,3 9 5 O 1013,5
09.11.2019 08:00:00 14,6 8,0 5 3 ONO 1013,5
09.11.2019 07:00:00 14,1 8,0 5 3 NO 1013,0
09.11.2019 06:00:00 14,2 7,7 8 4 NO 1012,6
09.11.2019 05:00:00 14,3 7,1 11 6 ONO 1012,4
09.11.2019 04:00:00 14,7 6,9 11 6 NO 1012,4
09.11.2019 03:00:00 14,6 6,9 8 4 NO 1012,8
09.11.2019 02:00:00 15,0 6,5 4 2 ONO 1012,7
09.11.2019 01:00:00 15,0 6,5 5 3 NO 1012,7
09.11.2019 00:00:00 15,3 6,0 4 2 NO 1012,9
08.11.2019 23:00:00 15,0 6,0 5 3 ONO 1013,2

tt = Temperatura
td = dewpoint
ff = velocità del vento
dd = direzione del vento
ppp = reduced air pressure

Stazioni seguenti

WeatherPro
AMSI
MeteoEarth